Flag for Barbados Weather past 2 weeks in Bridgetown, Barbados

Now
84 °F

Scattered clouds.


Feels Like: 92 °F
Forecast: 80 / 86 °F
Wind: 9 mph from East

Location: Grantley Adams

Current Time: Aug 21, 2014 at 10:15:37 AM

Latest Report: Aug 21, 2014 at 9:00 AM


Visibility: N/A

Pressure: 29.92 "Hg

Humidity: 74%

Dew point: 75 °F

Location of BridgetownLocation

Historic Weather in Bridgetown — Graph

°F

Bridgetown temperature yesterday

Maximum temperature yesterday: 86 °F (at 9:00 AM)
Minimum temperature yesterday: 79 °F (at 1:00 AM)
Average temperature yesterday: 82 °F

Past Weeks' High & Low Weather Summary

 TemperatureHumidityPressure
High88 °F (Aug 13, 12:00 PM)100% (Aug 8, 7:00 PM)30.07 "Hg (Aug 8, 7:00 PM)
Low75 °F (Aug 8, 10:00 AM)66% (Aug 9, 11:00 AM)29.86 "Hg (Aug 18, 3:00 PM)
Average82 °F82%29.96 "Hg
* Reported Aug 6 9:00 AM — Aug 21 9:00 AM, Bridgetown, Weather by CustomWeather, © 2014

Note: Actual official high and low records may vary slightly from our data, if they occured in-between our weather recording intervals... More about our weather records

Advertising

Bridgetown weather history for previous 24 hours

 ConditionsComfort  
Time TempWeatherWind HumidityBarometerVisibility
9:00 AM
Aug 21
84 °FScattered clouds.9 mph74%29.92 "HgN/A
8:00 AM82 °FScattered clouds.9 mph84%29.89 "HgN/A
7:00 AM82 °FPartly sunny.7 mph84%29.89 "HgN/A
6:00 AM82 °FScattered clouds.8 mph84%29.86 "HgN/A
5:00 AM81 °FPartly cloudy.3 mph94%29.86 "HgN/A
4:00 AM81 °FPartly cloudy.3 mph94%29.86 "HgN/A
3:00 AM81 °FPartly cloudy.5 mph94%29.86 "HgN/A
2:00 AM82 °FPassing clouds.7 mph89%29.86 "HgN/A
12:00 AM81 °FPassing clouds.5 mph94%29.89 "HgN/A
11:00 PM
Aug 20
81 °FPartly cloudy.3 mph94%29.92 "HgN/A
10:00 PM82 °FPartly cloudy.7 mph89%29.92 "HgN/A
9:00 PM82 °FPassing clouds.8 mph89%29.92 "HgN/A
8:00 PM79 °FPassing clouds.8 mph89%29.92 "HgN/A
7:00 PM82 °FPartly cloudy.8 mph84%29.89 "HgN/A
6:00 PM82 °FScattered showers. Broken clouds.8 mph84%29.89 "HgN/A
5:00 PM82 °FBroken clouds.12 mph79%29.89 "HgN/A
4:00 PM84 °FBroken clouds.14 mph74%29.86 "HgN/A
3:00 PM84 °FScattered clouds.14 mph74%29.89 "HgN/A
2:00 PM84 °FScattered showers. Broken clouds.14 mph74%29.89 "HgN/A
1:00 PM84 °FScattered showers. Partly sunny.14 mph74%29.89 "HgN/A
12:00 PM84 °FPartly sunny.12 mph79%29.92 "HgN/A
11:00 AM86 °FPartly sunny.8 mph75%29.92 "HgN/A
10:00 AM82 °FPartly sunny.10 mph84%29.95 "HgN/A
Weather by CustomWeather, © 2014

See weather overviewHow to use our weather pages